Simultaneous Nadir Overpasses (SNOs) Predictions

Prediction of SNOs between GOES-17 and FY3D Satellite Orbit:

Table of predicted SNOs for the next 14.0 days since TLE Epoch: 9/11/2021
Index Date Time (GOES-17) GOES-17 Lat,Lon FY3D Lat,Lon Distance(km) Time Diff (sec)
1 09/12/2021 22:49:55 -0.05,-137.19 -0.17,-137.67 55.34 80
2 09/13/2021 22:33:38 -0.04,-137.18 0.90,-133.09 467.10 80
3 09/15/2021 10:52:25 0.04,-137.17 0.26,-138.26 123.85 80
4 09/16/2021 10:36:06 0.03,-137.16 -0.74,-133.67 398.16 80
5 09/17/2021 22:55:02 -0.02,-137.14 -0.42,-138.88 198.08 80
6 09/18/2021 22:38:44 -0.02,-137.13 0.64,-134.29 323.92 80
7 09/20/2021 10:57:32 0.01,-137.12 0.52,-139.47 267.25 80
8 09/21/2021 10:41:13 0.01,-137.10 -0.49,-134.87 254.76 80
9 09/22/2021 23:00:08 -0.01,-137.08 -0.68,-140.08 341.67 80
10 09/23/2021 22:43:50 -0.02,-137.06 0.33,-135.48 180.06 80
